1485212400.34,35275,9.81,73424.3,-8.55,-40.91,-41.11,0,*57
1485212401.58,35276,9.81,73424.3,-8.55,-40.97,-41.11,0,*52
1485212402.82,35277,9.81,73424.8,-8.51,-40.91,-41.11,0,*51
1485212404.03,35278,9.81,73420.8,-8.55,-41.11,-41.29,0,*58
1485212405.26,35279,9.81,73424.5,-8.55,-41.17,-41.35,0,*52
1485212406.46,35280,9.81,73426.0,-8.55,-41.11,-41.29,0,*5F
1485212407.7,35281,9.88,73430.0,-8.55,-40.97,-41.29,0,*51
1485212408.93,35282,9.81,73424.8,-8.55,-40.85,-41.03,0,*59
1485212410.16,35283,9.81,73426.0,-8.55,-40.79,-41.11,0,*58
1485212411.43,35284,9.81,73422.3,-8.51,-40.85,-41.03,0,*5B
1485212412.66,35285,9.81,73420.5,-8.55,-40.97,-41.17,0,*58
1485212413.9,35286,9.81,73422.3,-8.51,-40.91,-41.11,0,*5F
1485212415.11,35287,9.81,73420.3,-8.55,-40.65,-41.11,0,*51
1485212416.37,35288,9.81,73422.8,-8.51,-40.85,-41.11,0,*54
1485212417.63,35289,9.81,73424.8,-8.51,-40.85,-41.03,0,*56
1485212418.87,35290,9.81,73422.8,-8.51,-40.91,-41.11,0,*58
1485212420.11,35291,9.81,73426.0,-8.51,-40.73,-41.03,0,*56
1485212421.38,35292,9.81,73422.3,-8.51,-40.85,-41.11,0,*5F
1485212422.61,35293,9.81,73426.8,-8.55,-40.97,-41.17,0,*5F
1485212423.84,35294,9.81,73426.3,-8.51,-40.73,-41.11,0,*50
1485212425.08,35295,9.81,73422.8,-8.51,-41.03,-41.11,0,*57
1485212426.32,35296,9.81,73424.0,-8.51,-41.03,-41.29,0,*5F
1485212427.57,35297,9.81,73426.0,-8.51,-40.91,-41.11,0,*5F
1485212428.81,35298,9.81,73424.8,-8.51,-41.03,-41.11,0,*5A
1485212430.07,35299,9.81,73426.0,-8.51,-40.91,-41.23,0,*50
1485212431.34,35300,9.81,73424.3,-8.51,-40.91,-41.23,0,*51
1485212432.61,35301,9.81,73424.3,-8.51,-41.03,-41.23,0,*5A
1485212433.88,35302,9.81,73426.0,-8.51,-41.03,-41.23,0,*59
1485212435.12,35303,9.81,73424.0,-8.51,-40.91,-41.11,0,*53
1485212436.36,35304,9.81,73426.8,-8.51,-40.91,-41.11,0,*54
1485212437.59,35305,9.81,73424.3,-8.51,-41.11,-41.11,0,*5C
1485212438.84,35306,9.81,73422.5,-8.51,-41.03,-41.11,0,*5C
1485212440.1,35307,9.81,73424.3,-8.51,-40.85,-41.11,0,*52
1485212441.36,35308,9.81,73424.3,-8.51,-41.23,-41.29,0,*5B
1485212442.62,35309,9.81,73426.5,-8.51,-41.11,-41.23,0,*51
1485212443.86,35310,9.81,73424.0,-8.49,-41.17,-41.23,0,*56
1485212445.07,35311,9.81,73422.8,-8.49,-41.03,-41.17,0,*55
1485212446.28,35312,9.81,73422.3,-8.49,-41.17,-41.17,0,*53
1485212447.54,35313,9.81,73420.5,-8.47,-40.97,-41.17,0,*55
1485212448.78,35314,9.81,73424.0,-8.49,-40.97,-41.17,0,*5C
1485212450.01,35315,9.81,73424.5,-8.49,-40.97,-41.17,0,*5D
1485212451.22,35316,9.81,73424.3,-8.49,-41.17,-41.41,0,*54
1485212452.43,35317,9.81,73424.5,-8.49,-41.03,-41.17,0,*53
1485212453.68,35318,9.81,73424.3,-8.49,-41.03,-41.23,0,*5B
1485212454.92,35319,9.81,73424.5,-8.49,-41.03,-41.23,0,*5A
1485212456.16,35320,9.81,73424.8,-8.49,-41.03,-41.23,0,*50
1485212457.39,35321,9.81,73424.5,-8.49,-40.97,-41.17,0,*5A
1485212458.63,35322,9.81,73424.5,-8.49,-40.97,-41.17,0,*59
1485212459.86,35323,9.81,73422.3,-8.49,-40.97,-41.17,0,*58
1485212461.12,35324,9.81,73426.0,-8.47,-40.85,-41.17,0,*52
1485212462.36,35325,9.81,73426.5,-8.49,-41.03,-41.23,0,*55
1485212463.6,35326,9.81,73422.5,-8.49,-41.35,-41.41,0,*57
1485212464.87,35327,9.81,73424.0,-8.47,-41.35,-41.41,0,*58
1485212466.13,35328,9.81,73426.5,-8.49,-41.23,-41.35,0,*5D
1485212467.35,35329,9.81,73422.3,-8.49,-41.03,-41.17,0,*5E
1485212468.55,35330,9.81,73422.3,-8.49,-41.17,-41.17,0,*53
1485212469.77,35331,9.81,73422.3,-8.49,-41.03,-41.17,0,*57
1485212470.98,35332,9.81,73426.5,-8.49,-41.03,-41.17,0,*54
1485212472.25,35333,9.81,73424.0,-8.47,-41.03,-41.23,0,*5C
1485212473.46,35334,9.81,73422.8,-8.49,-41.17,-41.17,0,*57
1485212474.67,35335,9.81,73426.3,-8.49,-41.03,-41.17,0,*53
1485212475.92,35336,9.81,73424.0,-8.47,-41.03,-41.17,0,*5E
1485212477.18,35337,9.81,73424.0,-8.49,-40.97,-41.35,0,*5D
1485212478.41,35338,9.81,73424.3,-8.49,-41.17,-41.23,0,*5C
1485212479.7,35339,9.81,73420.5,-8.47,-41.35,-41.35,0,*54
1485212480.97,35340,9.81,73420.5,-8.49,-41.23,-41.35,0,*53
1485212482.2,35341,9.81,73422.5,-8.49,-40.97,-41.17,0,*5C
1485212483.47,35342,9.81,73420.8,-8.47,-41.17,-41.35,0,*58
1485212484.7,35343,9.81,73422.0,-8.49,-41.17,-41.23,0,*50
1485212485.92,35344,9.81,73424.8,-8.49,-41.03,-41.17,0,*55
1485212487.15,35345,9.81,73426.0,-8.49,-40.97,-41.17,0,*58
1485212488.39,35346,9.81,73420.8,-8.49,-41.17,-41.23,0,*55
1485212489.59,35347,9.81,73420.0,-8.49,-41.17,-41.17,0,*53
1485212490.83,35348,9.81,73424.5,-8.47,-41.03,-41.17,0,*57
1485212492.05,35349,9.81,73426.3,-8.49,-41.03,-41.17,0,*58
1485212493.29,35350,9.81,73426.0,-8.49,-41.35,-41.41,0,*56
1485212494.53,35351,9.81,73422.3,-8.47,-41.03,-41.17,0,*5F
1485212495.77,35352,9.81,73422.5,-8.47,-41.03,-41.17,0,*5C
1485212497.04,35353,9.81,73424.8,-8.47,-41.03,-41.23,0,*5A
1485212498.3,35354,9.81,73424.0,-8.47,-41.03,-41.35,0,*5A
1485212499.54,35355,9.81,73422.0,-8.47,-41.17,-41.41,0,*5D
1485212500.83,35356,9.81,73422.5,-8.47,-41.35,-41.35,0,*5D
1485212502.1,35357,9.81,73424.3,-8.47,-41.23,-41.41,0,*58
1485212503.34,35358,9.81,73420.5,-8.47,-41.03,-41.17,0,*56
1485212504.58,35359,9.81,73424.3,-8.49,-41.35,-41.41,0,*5F
1485212505.84,35360,9.81,73424.3,-8.47,-41.03,-41.23,0,*5A
1485212507.11,35361,9.81,73424.0,-8.47,-40.97,-41.17,0,*50
1485212508.35,35362,9.81,73424.0,-8.49,-40.85,-41.03,0,*5B
1485212509.64,35363,9.81,73424.5,-8.47,-41.23,-41.35,0,*5C
1485212510.9,35364,9.81,73424.8,-8.47,-41.23,-41.41,0,*58
1485212512.17,35365,9.81,73424.0,-8.49,-41.23,-41.35,0,*54
1485212513.41,35366,9.81,73420.3,-8.49,-41.23,-41.41,0,*54
1485212514.65,35367,9.81,73424.8,-8.49,-41.23,-41.41,0,*55
1485212515.89,35368,9.81,73420.5,-8.49,-41.23,-41.41,0,*5A
1485212517.15,35369,9.81,73426.3,-8.49,-41.35,-41.55,0,*59
1485212518.41,35370,9.81,73422.8,-8.47,-41.17,-41.35,0,*59
1485212519.68,35371,9.81,73424.0,-8.47,-41.17,-41.35,0,*58
1485212520.91,35372,9.81,73426.0,-8.49,-41.17,-41.23,0,*52
1485212522.15,35373,9.81,73420.3,-8.47,-41.17,-41.41,0,*59
1485212523.41,35374,9.81,73422.5,-8.47,-41.35,-41.41,0,*5E
1485212524.7,35375,9.81,73422.3,-8.47,-41.23,-41.23,0,*5C
1485212525.94,35376,9.81,73422.5,-8.49,-41.17,-41.23,0,*56
1485212527.2,35377,9.81,73424.5,-8.47,-41.35,-41.61,0,*5F
1485212528.49,35378,9.81,73424.3,-8.47,-41.35,-41.35,0,*51
1485212529.75,35379,9.81,73422.0,-8.47,-41.17,-41.23,0,*57
1485212530.99,35380,9.81,73422.3,-8.49,-41.17,-41.23,0,*5F
1485212532.28,35381,9.81,73422.3,-8.47,-41.23,-41.35,0,*50
1485212533.52,35382,9.81,73424.3,-8.49,-41.35,-41.41,0,*59
1485212534.76,35383,9.81,73424.5,-8.49,-41.23,-41.41,0,*5F
1485212536.0,35384,9.81,73422.5,-8.49,-41.35,-41.41,0,*5F
1485212537.26,35385,9.81,73424.3,-8.49,-41.23,-41.55,0,*5C
1485212538.53,35386,9.81,73422.3,-8.49,-41.23,-41.35,0,*59
1485212539.79,35387,9.81,73422.3,-8.47,-41.35,-41.41,0,*52
1485212541.06,35388,9.81,73422.0,-8.47,-41.03,-41.23,0,*5C
1485212542.32,35389,9.81,73422.8,-8.47,-41.17,-41.23,0,*58
1485212543.56,35390,9.81,73420.8,-8.49,-41.17,-41.35,0,*59
1485212544.79,35391,9.81,73420.8,-8.49,-41.17,-41.35,0,*58
1485212546.0,35392,9.81,73422.5,-8.49,-41.17,-41.41,0,*58
1485212547.3,35393,9.81,73420.5,-8.47,-41.23,-41.35,0,*53
1485212548.53,35394,9.81,73420.8,-8.49,-41.17,-41.35,0,*5D
1485212549.8,35395,9.81,73424.3,-8.49,-41.35,-41.55,0,*5A
1485212551.06,35396,9.81,73420.8,-8.49,-41.23,-41.35,0,*58
1485212552.3,35397,9.81,73424.0,-8.49,-41.17,-41.35,0,*5E
1485212553.56,35398,9.81,73422.8,-8.47,-41.41,-41.55,0,*5A
1485212554.8,35399,9.81,73422.3,-8.49,-41.41,-41.55,0,*55
1485212556.04,35400,9.81,73424.8,-8.49,-41.41,-41.55,0,*52
1485212557.3,35401,9.81,73426.0,-8.49,-41.35,-41.35,0,*56
1485212558.51,35402,9.81,73424.0,-8.49,-41.41,-41.61,0,*57
1485212559.8,35403,9.81,73422.8,-8.47,-41.35,-41.55,0,*5C
1485212561.07,35404,9.81,73424.8,-8.47,-41.35,-41.41,0,*5E
1485212562.33,35405,9.81,73426.8,-8.49,-41.35,-41.55,0,*54
1485212563.6,35406,9.81,73422.3,-8.49,-41.23,-41.35,0,*56
1485212564.84,35407,9.81,73426.0,-8.49,-41.41,-41.55,0,*55
1485212566.08,35408,9.81,73426.3,-8.49,-41.35,-41.41,0,*5C
1485212567.32,35409,9.81,73422.0,-8.49,-41.23,-41.41,0,*5A
1485212568.55,35410,9.81,73422.0,-8.49,-41.35,-41.41,0,*55
1485212569.79,35411,9.81,73420.5,-8.49,-41.17,-41.23,0,*50
1485212571.03,35412,9.81,73420.8,-8.49,-41.17,-41.23,0,*53
1485212572.29,35413,9.81,73422.8,-8.49,-41.23,-41.35,0,*52
1485212573.56,35414,9.81,73422.3,-8.49,-41.35,-41.35,0,*52
1485212574.82,35415,9.81,73424.3,-8.49,-41.23,-41.35,0,*54
1485212576.09,35416,9.81,73422.5,-8.49,-41.35,-41.55,0,*56
1485212577.33,35417,9.81,73420.3,-8.49,-41.23,-41.41,0,*55
1485212578.57,35418,9.81,73424.5,-8.49,-41.35,-41.41,0,*5D
1485212579.8,35419,9.81,73422.3,-8.49,-41.17,-41.35,0,*5F
1485212581.04,35420,9.81,73422.3,-8.49,-41.35,-41.41,0,*56
1485212582.28,35421,9.81,73422.0,-8.49,-41.35,-41.41,0,*57
1485212583.54,35422,9.81,73422.8,-8.49,-41.35,-41.55,0,*51
1485212584.81,35423,9.81,73420.0,-8.47,-41.23,-41.41,0,*5C
1485212586.08,35424,9.81,73424.3,-8.47,-41.35,-41.41,0,*5C
1485212587.28,35425,9.81,73420.8,-8.49,-41.17,-41.41,0,*53
1485212588.55,35426,9.81,73422.5,-8.49,-41.35,-41.35,0,*53
1485212589.79,35427,9.81,73422.8,-8.49,-41.23,-41.41,0,*56
1485212591.06,35428,9.81,73422.5,-8.47,-41.03,-41.23,0,*51
1485212592.3,35429,9.81,73420.8,-8.49,-41.03,-41.23,0,*5E
1485212593.51,35430,9.81,73424.0,-8.49,-41.03,-41.17,0,*51
1485212594.78,35431,9.81,73420.0,-8.49,-41.23,-41.35,0,*52
1485212595.99,35432,9.81,73422.8,-8.49,-41.17,-41.41,0,*55
1485212597.23,35433,9.81,73426.3,-8.49,-41.23,-41.41,0,*53
1485212598.49,35434,9.81,73422.8,-8.49,-41.23,-41.35,0,*57
1485212599.73,35435,9.81,73424.3,-8.49,-41.23,-41.41,0,*55
1485212600.99,35436,9.81,73422.5,-8.49,-41.23,-41.35,0,*55
1485212602.26,35437,9.81,73422.5,-8.49,-41.23,-41.35,0,*54
1485212603.52,35438,9.81,73420.0,-8.51,-41.23,-41.49,0,*59
1485212604.75,35439,9.81,73422.3,-8.51,-41.29,-41.49,0,*52
1485212605.98,35440,9.81,73420.0,-8.49,-40.85,-41.17,0,*59
1485212607.22,35441,9.81,73422.3,-8.49,-40.85,-41.17,0,*58
1485212608.46,35442,9.81,73422.0,-8.49,-41.03,-41.23,0,*53
1485212609.74,35443,9.81,73420.3,-8.47,-40.97,-41.23,0,*50
1485212610.95,35444,9.81,73422.8,-8.49,-41.17,-41.17,0,*57
1485212612.19,35445,9.81,73420.8,-8.49,-41.03,-41.23,0,*54
1485212613.43,35446,9.81,73422.5,-8.49,-41.35,-41.41,0,*56
1485212614.67,35447,9.81,73420.8,-8.49,-41.23,-41.41,0,*50
1485212615.91,35448,9.81,73420.0,-8.49,-41.35,-41.41,0,*58
1485212617.15,35449,9.81,73420.8,-8.49,-41.41,-41.55,0,*5F
1485212618.41,35450,9.81,73422.5,-8.49,-41.35,-41.55,0,*54
1485212619.65,35451,9.81,73418.0,-8.49,-41.23,-41.41,0,*57
1485212620.89,35452,9.81,73424.0,-8.49,-41.35,-41.41,0,*53
1485212622.18,35453,9.81,73420.0,-8.47,-41.35,-41.55,0,*59
1485212623.42,35454,9.81,73420.8,-8.49,-41.35,-41.61,0,*57
1485212624.66,35455,9.81,73420.5,-8.49,-41.41,-41.55,0,*52
1485212625.89,35456,9.81,73418.8,-8.49,-41.35,-41.61,0,*55
1485212627.13,35457,9.81,73422.0,-8.49,-41.35,-41.41,0,*56
1485212628.37,35458,9.81,73424.5,-8.49,-41.35,-41.41,0,*59
1485212629.61,35459,9.81,73422.5,-8.49,-41.23,-41.41,0,*5F
1485212630.88,35460,9.81,73424.8,-8.49,-41.23,-41.35,0,*56
1485212632.12,35461,9.81,73422.0,-8.49,-41.03,-41.23,0,*52
1485212633.32,35462,9.81,73420.3,-8.49,-41.17,-41.17,0,*53
1485212634.56,35463,9.81,73426.0,-8.49,-41.17,-41.35,0,*52
1485212635.8,35464,9.81,73420.5,-8.49,-41.17,-41.35,0,*55
1485212637.0,35465,9.81,73420.0,-8.49,-41.17,-41.41,0,*57
1485212638.24,35466,9.81,73426.5,-8.49,-41.35,-41.41,0,*54
1485212639.48,35467,9.81,73420.3,-8.51,-41.11,-41.41,0,*5A
1485212640.71,35468,9.81,73420.5,-8.49,-41.11,-41.23,0,*58
1485212641.95,35469,9.81,73424.5,-8.49,-41.17,-41.23,0,*5F
1485212643.19,35470,9.81,73418.5,-8.49,-41.23,-41.41,0,*54
1485212644.4,35471,9.81,73426.0,-8.49,-41.17,-41.41,0,*52
1485212645.63,35472,9.81,73422.3,-8.49,-41.23,-41.41,0,*56
1485212646.87,35473,9.81,73420.3,-8.49,-41.35,-41.41,0,*50
1485212648.11,35474,9.81,73422.3,-8.49,-41.35,-41.41,0,*57
1485212649.38,35475,9.81,73420.8,-8.49,-41.35,-41.23,0,*52
1485212650.61,35476,9.81,73420.5,-8.49,-41.17,-41.35,0,*56
1485212651.88,35477,9.81,73422.3,-8.49,-41.35,-41.35,0,*57
1485212653.11,35478,9.81,73422.5,-8.51,-41.29,-41.49,0,*57
1485212654.34,35479,9.81,73420.8,-8.51,-41.41,-41.49,0,*58
1485212655.57,35480,9.81,73422.5,-8.51,-41.41,-41.61,0,*54
1485212656.8,35481,9.81,73422.0,-8.51,-41.29,-41.61,0,*5B
1485212658.01,35482,9.81,73420.0,-8.49,-41.41,-41.61,0,*5F
1485212659.25,35483,9.81,73418.3,-8.49,-41.41,-41.55,0,*59
1485212660.51,35484,9.81,73422.0,-8.49,-41.23,-41.55,0,*5A
1485212661.78,35485,9.81,73422.0,-8.49,-41.23,-41.35,0,*5D
1485212663.04,35486,9.81,73422.3,-8.51,-41.23,-41.49,0,*5C
1485212664.27,35487,9.81,73422.3,-8.51,-41.61,-41.61,0,*51
1485212665.51,35488,9.81,73422.5,-8.49,-41.35,-41.41,0,*54
1485212666.75,35489,9.81,73420.0,-8.49,-41.35,-41.61,0,*57
1485212668.01,35490,9.81,73422.8,-8.49,-41.35,-41.55,0,*58
1485212669.24,35491,9.81,73420.8,-8.51,-41.29,-41.41,0,*58
1485212670.47,35492,9.81,73422.0,-8.51,-41.29,-41.49,0,*53
1485212671.74,35493,9.81,73420.3,-8.51,-41.41,-41.67,0,*50
1485212673.0,35494,9.81,73422.0,-8.55,-41.35,-41.55,0,*51
1485212674.27,35495,9.81,73420.8,-8.51,-41.49,-41.67,0,*5E
1485212675.53,35496,9.81,73422.0,-8.49,-41.35,-41.55,0,*5E
1485212676.77,35497,9.81,73422.0,-8.55,-41.49,-41.67,0,*58
1485212678.03,35498,9.81,73420.8,-8.55,-41.35,-41.55,0,*5D
1485212679.3,35499,9.81,73420.0,-8.55,-41.35,-41.55,0,*5C
1485212680.53,35500,9.81,73422.8,-8.51,-41.41,-41.49,0,*57
1485212681.76,35501,9.81,73420.8,-8.51,-41.41,-41.49,0,*56
1485212682.97,35502,9.81,73422.0,-8.55,-41.41,-41.49,0,*51
1485212684.2,35503,9.81,73422.0,-8.51,-41.49,-41.61,0,*56
1485212685.46,35504,9.81,73422.3,-8.51,-41.23,-41.41,0,*5F
1485212686.7,35505,9.81,73420.3,-8.51,-41.41,-41.61,0,*58
1485212687.96,35506,9.81,73420.8,-8.51,-41.61,-41.81,0,*57
1485212689.19,35507,9.81,73416.8,-8.55,-41.67,-41.87,0,*52
1485212690.43,35508,9.81,73420.8,-8.51,-41.41,-41.49,0,*5F
1485212691.65,35509,9.81,73422.0,-8.51,-41.29,-41.49,0,*50
1485212692.88,35510,9.81,73420.0,-8.51,-41.29,-41.61,0,*52
1485212694.12,35511,9.81,73422.0,-8.51,-41.41,-41.61,0,*5D
1485212695.36,35512,9.81,73422.0,-8.51,-41.03,-41.29,0,*54
1485212696.56,35513,9.81,73420.0,-8.55,-41.17,-41.49,0,*52
1485212697.79,35514,9.81,73420.0,-8.55,-41.35,-41.49,0,*55
1485212698.99,35515,9.81,73422.3,-8.55,-41.29,-41.49,0,*59
1485212700.22,35516,9.81,73422.8,-8.51,-41.29,-41.41,0,*56
1485212701.49,35517,9.81,73416.3,-8.51,-41.23,-41.41,0,*5D
1485212702.72,35518,9.81,73420.0,-8.55,-41.29,-41.35,0,*5F
1485212703.92,35519,9.81,73416.5,-8.55,-41.29,-41.49,0,*55
1485212705.18,35520,9.81,73424.0,-8.51,-41.23,-41.41,0,*59
1485212706.45,35521,9.81,73422.0,-8.51,-41.23,-41.29,0,*56
1485212707.68,35522,9.81,73418.5,-8.51,-41.11,-41.29,0,*54
1485212708.94,35523,9.81,73420.5,-8.51,-41.23,-41.49,0,*52
1485212710.2,35524,9.81,73420.8,-8.55,-41.35,-41.55,0,*5B
1485212711.44,35525,9.81,73418.3,-8.51,-41.41,-41.41,0,*58
1485212712.68,35526,9.81,73418.8,-8.51,-41.61,-41.61,0,*5B
1485212713.91,35527,9.81,73418.5,-8.51,-41.29,-41.41,0,*54
1485212715.11,35528,9.81,73418.5,-8.55,-41.49,-41.49,0,*51
1485212716.34,35529,9.81,73422.3,-8.51,-41.29,-41.41,0,*5A
1485212717.55,35530,9.81,73422.8,-8.55,-41.17,-41.29,0,*55
1485212718.81,35531,9.81,73420.5,-8.51,-41.23,-41.29,0,*57
1485212720.05,35532,9.81,73416.5,-8.51,-41.41,-41.61,0,*5C
1485212721.27,35533,9.81,73422.8,-8.51,-41.29,-41.61,0,*53
1485212722.51,35534,9.81,73420.3,-8.51,-41.29,-41.41,0,*56
1485212723.77,35535,9.81,73418.0,-8.51,-41.23,-41.29,0,*53
1485212725.03,35536,9.81,73420.0,-8.51,-41.23,-41.29,0,*50
1485212726.26,35537,9.81,73422.0,-8.55,-41.29,-41.35,0,*52
1485212727.5,35538,9.81,73420.5,-8.51,-41.11,-41.41,0,*51
1485212728.76,35539,9.75,73418.8,-8.51,-41.23,-41.29,0,*5F
1485212730.0,35540,9.81,73420.8,-8.55,-41.23,-41.29,0,*55
1485212731.23,35541,9.81,73418.5,-8.49,-41.17,-41.23,0,*54
1485212732.47,35542,9.81,73426.5,-8.55,-41.49,-41.55,0,*50
1485212733.7,35543,9.81,73422.8,-8.51,-41.29,-41.61,0,*54
1485212734.93,35544,9.81,73422.8,-8.51,-41.11,-41.49,0,*52
1485212736.16,35545,9.81,73420.5,-8.55,-41.49,-41.67,0,*56
1485212737.37,35546,9.81,73420.0,-8.55,-41.29,-41.41,0,*57
1485212738.63,35547,9.81,73418.3,-8.51,-41.11,-41.35,0,*5A
1485212739.86,35548,9.81,73420.8,-8.55,-41.17,-41.35,0,*57
1485212741.09,35549,9.81,73422.5,-8.51,-41.11,-41.29,0,*59
1485212742.36,35550,9.81,73418.5,-8.51,-41.23,-41.41,0,*5E
1485212743.59,35551,9.81,73422.5,-8.51,-41.41,-41.49,0,*53
1485212744.82,35552,9.81,73420.8,-8.55,-41.35,-41.49,0,*57
1485212746.09,35553,9.81,73420.0,-8.55,-41.35,-41.55,0,*5B
1485212747.35,35554,9.81,73418.8,-8.51,-41.23,-41.49,0,*52
1485212748.55,35555,9.81,73420.3,-8.55,-41.29,-41.41,0,*55
1485212749.78,35556,9.81,73420.0,-8.51,-41.29,-41.41,0,*52
1485212751.02,35557,9.81,73422.3,-8.55,-41.35,-41.49,0,*52
1485212752.24,35558,9.81,73422.3,-8.51,-41.29,-41.49,0,*54
1485212753.48,35559,9.81,73422.8,-8.51,-41.29,-41.41,0,*5D
1485212754.74,35560,9.75,73418.0,-8.55,-41.35,-41.55,0,*5B
1485212756.0,35561,9.81,73422.8,-8.51,-41.23,-41.29,0,*52
1485212757.24,35562,9.81,73422.8,-8.51,-41.29,-41.41,0,*55
1485212758.47,35563,9.81,73420.3,-8.51,-41.29,-41.41,0,*54
1485212759.7,35564,9.81,73418.8,-8.55,-41.29,-41.35,0,*54
1485212760.96,35565,9.75,73416.8,-8.51,-41.23,-41.41,0,*58
1485212762.16,35566,9.81,73418.5,-8.55,-41.29,-41.49,0,*5D
1485212763.39,35567,9.81,73424.0,-8.55,-41.11,-41.23,0,*5B
1485212764.62,35568,9.81,73418.8,-8.51,-41.29,-41.41,0,*5F
1485212765.92,35569,9.75,73418.0,-8.51,-41.23,-41.23,0,*50
1485212767.15,35570,9.81,73418.8,-8.51,-41.29,-41.41,0,*56
1485212768.38,35571,9.81,73422.3,-8.51,-41.29,-41.41,0,*57
1485212769.61,35572,9.81,73418.8,-8.51,-41.41,-41.49,0,*52
1485212770.85,35573,9.75,73416.8,-8.55,-41.55,-41.73,0,*5B
1485212772.08,35574,9.81,73422.8,-8.51,-41.41,-41.49,0,*54
1485212773.32,35575,9.81,73424.0,-8.51,-41.41,-41.41,0,*5D
1485212774.55,35576,9.81,73420.8,-8.55,-41.35,-41.49,0,*51
1485212775.82,35577,9.81,73418.5,-8.51,-41.23,-41.41,0,*5B
1485212777.08,35578,9.81,73420.8,-8.51,-41.23,-41.29,0,*5A
1485212778.28,35579,9.81,73422.3,-8.55,-41.29,-41.49,0,*53
1485212779.51,35580,9.81,73420.8,-8.51,-41.29,-41.41,0,*59
1485212780.71,35581,9.81,73422.3,-8.55,-41.17,-41.49,0,*59
1485212781.97,35582,9.75,73418.0,-8.51,-41.23,-41.49,0,*59
1485212783.21,35583,9.81,73422.0,-8.51,-41.29,-41.41,0,*5A
1485212784.44,35584,9.81,73420.8,-8.55,-41.49,-41.55,0,*5A
1485212785.67,35585,9.81,73418.5,-8.55,-41.17,-41.35,0,*56
1485212786.9,35586,9.75,73418.3,-8.55,-41.35,-41.49,0,*5E
1485212788.14,35587,9.81,73422.3,-8.51,-41.41,-41.49,0,*58
1485212789.4,35588,9.81,73422.5,-8.51,-41.29,-41.55,0,*54
1485212790.66,35589,9.81,73420.3,-8.51,-41.23,-41.29,0,*54
1485212791.89,35590,9.75,73416.3,-8.51,-41.29,-41.49,0,*50
1485212793.12,35591,9.81,73422.8,-8.51,-41.29,-41.41,0,*59
1485212794.38,35592,9.81,73418.3,-8.51,-41.23,-41.29,0,*5E
1485212795.61,35593,9.75,73418.8,-8.51,-41.29,-41.49,0,*53
1485212796.85,35594,9.81,73420.3,-8.51,-41.41,-41.41,0,*52
1485212798.11,35595,9.81,73420.5,-8.51,-41.23,-41.41,0,*57
1485212799.35,35596,9.81,73422.5,-8.51,-41.41,-41.41,0,*50
1485212800.59,35597,9.81,73420.3,-8.51,-41.11,-41.41,0,*54
1485212801.85,35598,9.81,73422.0,-8.51,-41.23,-41.49,0,*52
1485212803.11,35599,9.81,73420.5,-8.55,-41.35,-41.35,0,*5B
1485212804.34,35600,9.75,73416.0,-8.51,-41.41,-41.49,0,*54
1485212805.58,35601,9.81,73422.5,-8.55,-41.35,-41.49,0,*52
1485212806.81,35602,9.75,73418.0,-8.55,-41.29,-41.55,0,*51
1485212808.07,35603,9.81,73420.0,-8.55,-41.35,-41.55,0,*5D
1485212809.36,35604,9.81,73420.8,-8.51,-41.23,-41.55,0,*59
1485212810.62,35605,9.81,73422.0,-8.51,-41.23,-41.29,0,*53
1485212811.86,35606,9.81,73422.0,-8.51,-41.41,-41.41,0,*5A
1485212813.1,35607,9.81,73422.8,-8.51,-41.41,-41.49,0,*53
1485212814.33,35608,9.81,73420.8,-8.51,-41.29,-41.41,0,*5A
1485212815.56,35609,9.81,73422.3,-8.51,-41.29,-41.41,0,*5B
1485212816.76,35610,9.81,73420.5,-8.55,-41.29,-41.49,0,*5F
1485212818.02,35611,9.81,73420.3,-8.55,-41.35,-41.35,0,*58
1485212819.26,35612,9.75,73418.3,-8.51,-41.41,-41.49,0,*57
1485212820.48,35613,9.75,73418.3,-8.51,-41.29,-41.49,0,*58
1485212821.68,35614,9.81,73422.0,-8.55,-41.29,-41.49,0,*5B
1485212822.92,35615,9.81,73420.3,-8.51,-41.29,-41.41,0,*56
1485212824.18,35616,9.81,73422.5,-8.51,-41.23,-41.29,0,*51
1485212825.41,35617,9.81,73422.0,-8.51,-41.41,-41.49,0,*52
1485212826.68,35618,9.81,73420.8,-8.51,-41.23,-41.29,0,*5F
1485212827.88,35619,9.75,73416.0,-8.55,-41.29,-41.29,0,*50
1485212829.11,35620,9.81,73416.8,-8.51,-41.29,-41.49,0,*58
1485212830.37,35621,9.75,73416.8,-8.51,-41.49,-41.67,0,*53
1485212831.61,35622,9.75,73416.5,-8.55,-41.35,-41.49,0,*53
1485212832.87,35623,9.75,73416.5,-8.51,-41.23,-41.41,0,*59
1485212834.1,35624,9.81,73422.3,-8.51,-41.29,-41.41,0,*54
1485212835.37,35625,9.75,73416.5,-8.51,-41.23,-41.29,0,*51
1485212836.6,35626,9.81,73422.5,-8.51,-41.29,-41.41,0,*56
1485212837.86,35627,9.81,73418.8,-8.55,-41.35,-41.55,0,*5B
1485212839.07,35628,9.75,73418.3,-8.55,-41.41,-41.41,0,*52
1485212840.27,35629,9.75,73416.5,-8.55,-41.29,-41.49,0,*55
1485212841.5,35630,9.75,73418.0,-8.51,-41.29,-41.49,0,*59
1485212842.7,35631,9.81,73418.3,-8.55,-41.29,-41.29,0,*5A
1485212843.94,35632,9.75,73416.0,-8.51,-41.11,-41.41,0,*58
1485212845.2,35633,9.81,73420.3,-8.55,-41.35,-41.55,0,*5E
1485212846.44,35634,9.75,73416.5,-8.55,-41.49,-41.67,0,*53
1485212847.7,35635,9.75,73416.8,-8.55,-41.35,-41.67,0,*59
1485212848.94,35636,9.75,73416.0,-8.51,-41.41,-41.49,0,*51
1485212850.14,35637,9.81,73420.5,-8.55,-41.29,-41.49,0,*5A
1485212851.43,35638,9.81,73422.3,-8.51,-41.23,-41.23,0,*57
1485212852.66,35639,9.75,73416.5,-8.51,-41.11,-41.29,0,*5D
1485212853.89,35640,9.81,73420.8,-8.51,-41.11,-41.29,0,*53
1485212855.13,35641,9.75,73416.3,-8.51,-41.29,-41.29,0,*59
1485212856.36,35642,9.75,73418.0,-8.55,-41.29,-41.35,0,*53
1485212857.62,35643,9.81,73418.8,-8.51,-41.23,-41.41,0,*5F
1485212858.85,35644,9.75,73418.8,-8.51,-41.29,-41.41,0,*52
1485212860.09,35645,9.75,73420.0,-8.51,-41.41,-41.49,0,*55
1485212861.32,35646,9.81,73422.3,-8.55,-41.35,-41.49,0,*51
1485212862.55,35647,9.81,73420.3,-8.51,-41.29,-41.41,0,*51
1485212863.78,35648,9.81,73420.3,-8.51,-41.29,-41.49,0,*56
1485212865.01,35649,9.75,73418.3,-8.51,-41.29,-41.41,0,*5F
1485212866.28,35650,9.75,73418.8,-8.51,-41.23,-41.41,0,*5D
1485212867.53,35651,9.81,73418.8,-8.51,-41.29,-41.23,0,*52
1485212868.77,35652,9.81,73418.8,-8.51,-41.29,-41.41,0,*55
1485212870.0,35653,9.81,73418.3,-8.55,-41.35,-41.49,0,*55
1485212871.23,35654,9.81,73418.3,-8.51,-41.29,-41.41,0,*53
1485212872.43,35655,9.75,73416.8,-8.55,-41.29,-41.49,0,*5E
1485212873.66,35656,9.81,73422.3,-8.55,-41.29,-41.35,0,*56
1485212874.87,35657,9.81,73418.0,-8.55,-41.11,-41.41,0,*5F
1485212876.1,35658,9.75,73418.0,-8.51,-41.11,-41.41,0,*54
1485212877.33,35659,9.81,73420.0,-8.55,-41.17,-41.23,0,*53
1485212878.53,35660,9.81,73422.3,-8.55,-41.29,-41.49,0,*58
1485212879.77,35661,9.75,73418.3,-8.55,-41.35,-41.49,0,*54
1485212881.0,35662,9.75,73418.0,-8.51,-41.11,-41.29,0,*53
1485212882.23,35663,9.75,73418.3,-8.55,-41.35,-41.49,0,*56
1485212883.46,35664,9.75,73416.8,-8.51,-41.29,-41.41,0,*50
1485212884.7,35665,9.75,73416.5,-8.55,-41.29,-41.35,0,*56
1485212885.96,35666,9.75,73416.0,-8.51,-41.23,-41.41,0,*58
1485212887.19,35667,9.75,73418.0,-8.55,-41.35,-41.49,0,*52
1485212888.46,35668,9.81,73418.5,-8.51,-41.23,-41.29,0,*58
1485212889.72,35669,9.75,73420.0,-8.51,-41.23,-41.49,0,*5F
1485212890.98,35670,9.75,73418.5,-8.51,-41.23,-41.49,0,*57
1485212892.21,35671,9.75,73416.0,-8.51,-41.41,-41.61,0,*58
1485212893.44,35672,9.75,73416.0,-8.51,-41.29,-41.49,0,*5F
1485212894.67,35673,9.81,73420.3,-8.51,-41.29,-41.49,0,*5E
1485212895.9,35674,9.81,73418.8,-8.55,-41.49,-41.55,0,*56
1485212897.16,35675,9.75,73418.0,-8.51,-41.23,-41.41,0,*5A
1485212898.43,35676,9.81,73422.8,-8.51,-41.23,-41.29,0,*57
1485212899.69,35677,9.81,73418.5,-8.51,-41.23,-41.41,0,*58
1485212900.89,35678,9.75,73414.0,-8.55,-41.29,-41.49,0,*51
1485212902.12,35679,9.75,73418.0,-8.55,-41.29,-41.35,0,*5B
1485212903.38,35680,9.75,73418.8,-8.51,-41.11,-41.23,0,*55
1485212904.62,35681,9.81,73418.8,-8.51,-41.41,-41.49,0,*5D